weather.gov     
National Weather Service

Terminal Aerodrome Forecast
NWS Homepage
This page is being discontinued on March 12, 2014.
The same data is available at this site. Please update your bookmarks.
Thank you, and we apologize for the inconvenience.
Please send an email to SR-SRH.Webmaster@noaa.gov with any concerns.


Current Version
Previous Version:    01  02  03  04  05  06  07  08  09  10  11  12  13  14  15  16  17  18  19  20  21  22  23  
[Printable]
533
FTUS43 KLMK 200500
TAFSDF
TAF
KSDF 200526Z 2006/2112 18004KT P6SM BKN120
     FM201000 20004KT P6SM -SHRA BKN090
      TEMPO 2010/2013 4SM -SHRA BR BKN050
     FM201300 22009KT P6SM SCT035 BKN060
     FM202300 VRB05KT P6SM BKN035=


U.S. Dept. of Commerce
NOAA National Weather Service
1325 East West Highway
Silver Spring, MD 20910
E-mail: w-nws.webmaster@noaa.gov
Page last modified: May 16, 2007
NATIONAL WEATHER SERVICE: for Safety, for Work, for Fun - FOR LIFE